Altoona, PA

9:15 PM EST on November 14, 2019 (GMT -0500)
Altoona-Blair County

Weather History for KAOO - October, 2019

Change the Weather History Date:

Tuesday, October 22, 2019

  Actual Average Record
Temperature  
Mean Temperature 53 °F 49 °F  
Max Temperature 58 °F 59 °F 78 °F (2015)
Min Temperature 48 °F 39 °F 29 °F (1992)
Degree Days  
Heating Degree Days 12 16  
Month to date heating degree days 235 282  
Since 1 July heating degree days 277 462  
Cooling Degree Days 0 0  
Month to date cooling degree days 30 0  
Year to date cooling degree days 763 526  
Growing Degree Days 4 (Base 50)    
Moisture  
Dew Point 51 °F    
Average Humidity 84    
Maximum Humidity 96    
Minimum Humidity 72    
Precipitation  
Precipitation 0.99 in 0.09 in 1.56 in (1956)
Month to date precipitation 2.46 1.81  
Year to date precipitation 33.36 29.20  
Sea Level Pressure  
Sea Level Pressure 29.87 in    
Wind  
Wind Speed 6 mph (SSW)    
Max Wind Speed 21 mph    
Max Gust Speed 25 mph    
Visibility 6 miles    
Events Fog , Rain    
T = Trace of Precipitation, MM = Missing Value Source: NWS Daily Summary

Daily Weather History Graph

Daily Weather History Graph

Search for Another Location

Airport or City:

Astronomy

Oct. 22, 2019 Rise Set
Actual Time 7:31 AM EDT 6:23 PM EDT
Civil Twilight 7:03 AM EDT 6:51 PM EDT
Nautical Twilight 6:31 AM EDT 7:22 PM EDT
Astronomical Twilight 6:00 AM EDT 7:54 PM EDT
Moon 12:37 AM EDT (10/22) 3:32 PM EDT (10/22)
Length of Visible Light 11h 47m
Length of Day
10h 52m
Last Quarter, 37% of the Moon is Illuminated
Oct 22
Last Quarter
Oct 27
New
Nov 4
First Quarter
Nov 12
Full
Nov 19
Last Quarter

Hourly Weather History & Observations

Time (EDT) Temp. Dew Point Humidity Pressure Visibility Wind Dir Wind Speed Gust Speed Precip Events Conditions
12:53 AM 57.9 °F 48.9 °F 72% 30.00 in 10.0 mi South 6.9 mph - N/A   Overcast
1:34 AM 57.9 °F 48.9 °F 72% 29.99 in 10.0 mi Calm Calm - N/A   Overcast
1:53 AM 57.9 °F 48.9 °F 72% 29.98 in 10.0 mi SSE 12.7 mph - N/A   Overcast
2:53 AM 57.9 °F 50.0 °F 75% 29.95 in 10.0 mi Variable 6.9 mph - N/A   Overcast
3:33 AM 57.0 °F 50.0 °F 77% 29.95 in 10.0 mi Variable 3.5 mph - N/A   Overcast
3:53 AM 57.0 °F 50.0 °F 77% 29.93 in 10.0 mi Calm Calm - N/A   Overcast
4:53 AM 57.0 °F 51.1 °F 81% 29.92 in 10.0 mi Variable 3.5 mph - N/A   Overcast
5:27 AM 57.0 °F 51.1 °F 81% 29.92 in 10.0 mi Variable 5.8 mph - N/A   Overcast
5:53 AM 55.9 °F 51.1 °F 84% 29.91 in 10.0 mi SSE 6.9 mph - N/A   Overcast
6:53 AM 55.9 °F 51.1 °F 84% 29.91 in 10.0 mi Variable 5.8 mph - N/A   Overcast
7:53 AM 55.9 °F 52.0 °F 87% 29.91 in 10.0 mi SSE 13.8 mph 24.2 mph N/A   Overcast
8:53 AM 55.9 °F 52.0 °F 87% 29.89 in 10.0 mi Variable 6.9 mph 18.4 mph N/A   Overcast
9:53 AM 55.9 °F 52.0 °F 87% 29.90 in 10.0 mi South 6.9 mph - N/A   Overcast
10:53 AM 55.9 °F 52.0 °F 87% 29.86 in 10.0 mi SSE 10.4 mph - N/A   Overcast
11:49 AM 55.4 °F 53.6 °F 94% 29.85 in 1.8 mi Variable 3.5 mph - 0.03 in Rain Rain
11:53 AM 55.9 °F 53.1 °F 90% 29.84 in 1.5 mi SSW 3.5 mph - 0.05 in Rain Heavy Rain
12:53 PM 55.9 °F 53.1 °F 90% 29.83 in 0.8 mi West 5.8 mph - 0.42 in Rain Heavy Rain
1:09 PM 55.9 °F 53.1 °F 90% 29.84 in 1.0 mi West 8.1 mph - 0.11 in Rain Heavy Rain
1:25 PM 55.9 °F 52.0 °F 87% 29.83 in 1.8 mi SW 8.1 mph - 0.20 in Rain Heavy Rain
1:28 PM 55.9 °F 53.1 °F 90% 29.83 in 2.0 mi SW 6.9 mph - 0.21 in Rain Rain
1:44 PM 55.9 °F 53.1 °F 90% 29.84 in 1.8 mi SSW 8.1 mph - 0.28 in Rain Heavy Rain
1:53 PM 55.9 °F 53.1 °F 90% 29.83 in 1.8 mi SSW 6.9 mph - 0.32 in Rain Heavy Rain
2:02 PM 55.0 °F 53.1 °F 93% 29.83 in 3.0 mi South 4.6 mph - 0.02 in Rain Rain
2:53 PM 55.9 °F 53.1 °F 90% 29.84 in 5.0 mi WSW 6.9 mph - 0.11 in Rain Light Rain
3:10 PM 55.9 °F 53.1 °F 90% 29.85 in 2.5 mi WSW 4.6 mph - 0.05 in Rain Rain
3:21 PM 55.9 °F 53.1 °F 90% 29.84 in 4.0 mi SW 3.5 mph - 0.06 in Rain Light Rain
3:53 PM 57.0 °F 54.0 °F 89% 29.82 in 10.0 mi East 4.6 mph - 0.07 in Rain Light Rain
4:53 PM 57.0 °F 53.1 °F 87% 29.77 in 10.0 mi East 4.6 mph - 0.01 in   Overcast
5:53 PM 57.0 °F 53.1 °F 87% 29.82 in 10.0 mi SW 4.6 mph - 0.01 in   Scattered Clouds
6:53 PM 54.0 °F 51.1 °F 90% 29.84 in 10.0 mi South 4.6 mph - N/A   Partly Cloudy
7:53 PM 52.0 °F 48.9 °F 89% 29.86 in 10.0 mi South 4.6 mph - N/A   Clear
8:46 PM 51.1 °F 48.0 °F 89% 29.86 in 1.5 mi West 3.5 mph - N/A   Clear
8:51 PM 50.0 °F 48.2 °F 94% 29.86 in 0.5 mi Calm Calm - N/A Fog Fog
8:53 PM 50.0 °F 48.0 °F 93% 29.86 in 0.5 mi Calm Calm - N/A Fog Fog
9:14 PM 52.0 °F 50.0 °F 93% 29.86 in 1.0 mi SSW 3.5 mph - N/A   Mist
9:20 PM 50.0 °F 48.9 °F 96% 29.86 in 0.8 mi South 3.5 mph - N/A   Clear
9:28 PM 51.1 °F 48.9 °F 92% 29.86 in 0.5 mi Calm Calm - N/A Fog Fog
9:31 PM 52.0 °F 48.9 °F 89% 29.86 in 1.0 mi Calm Calm - N/A   Clear
9:42 PM 51.1 °F 48.9 °F 92% 29.86 in 3.0 mi SW 4.6 mph - N/A   Clear
9:53 PM 51.1 °F 48.0 °F 89% 29.87 in 9.0 mi Calm Calm - N/A   Clear
10:05 PM 50.0 °F 48.0 °F 93% 29.87 in 1.5 mi Calm Calm - N/A   Clear
10:10 PM 50.0 °F 48.0 °F 93% 29.87 in 0.5 mi Calm Calm - N/A Fog Fog
10:18 PM 50.0 °F 48.0 °F 93% 29.87 in 1.0 mi Calm Calm - N/A   Clear
10:22 PM 50.0 °F 48.0 °F 93% 29.87 in 3.0 mi SSW 3.5 mph - N/A   Clear
10:53 PM 50.0 °F 46.9 °F 89% 29.88 in 10.0 mi WSW 4.6 mph - N/A   Clear
11:53 PM 48.9 °F 45.0 °F 86% 29.88 in 10.0 mi WSW 5.8 mph - N/A   Clear